User: anonymous   Login
Location: ??????
(55.8274°N, 37.9338°E)
Time: 21:28:49
(UTC+00:00)
Language:

METEOR 2-6 DEB - Orbit

View from above orbital plane
View from above orbital plane
View from above satellite
View from above satellite

Ground track
Ground track

The orbit data is extracted from the following two-line orbital elements,

1 45502U 80073W   24262.87870142  .00009466  00000-0  37521-2 0  9992
2 45502  81.2217 317.7023 0031625  46.1369 314.2416 14.28498969509463
Epoch (UTC): 18 September 2024 21:05:19
Eccentricity: 0.0031625
inclination: 81.2217°
perigee height: 774 km
apogee height: 819 km
right ascension of ascending node: 317.7023°
argument of perigee: 46.1369°
revolutions per day: 14.28498969
mean anomaly at epoch: 314.2416°
orbit number at epoch: 50946

The dashed part of the orbit path shows where the satellite is in the earth's shadow,  

DLR